[[{"header":{"parameterUnit":"m.s-1","parameterCategory":1,"la1":30.2991,"la2":30.254,"lo1":-89.0895,"lo2":-89.0444,"dy":0.0017,"dx":0.0017,"nx":28,"ny":28,"refTime":"2024-09-25T21:00:00:Z","depth":0,"parameterNumber":2,"parameterNumberName":"U-component_of_WINDS"},"data":[0,0,0,0,0,0,0,0,0,0,0,0,0,0,0,0,0,0,0,0,0,0,0,0,0,0,0,0,0,0,0,0,0,0,0,0,0,0,0,0,0,0,0,0,0,0,0,0,0,0,0,0,0,0,0,0,0,0,-0.4876,-0.4877,0,-0.4944,-0.4945,-0.4946,-0.496,-0.4959,-0.4959,-0.4958,-0.503,-0.5032,-0.5034,0,0,0,0,0,0,0,0,0,0,0,0,0,-0.476,-0.4762,-0.4876,-0.4877,-0.4878,-0.4944,-0.4945,-0.4946,-0.496,-0.4959,-0.4958,-0.4958,-0.5029,-0.5032,-0.5035,0,0,0,0,0,0,0,0,0,0,0,0,0,-0.4817,-0.4762,-0.4876,-0.4893,-0.4895,-0.4944,-0.4945,-0.4946,-0.496,-0.4959,-0.4958,-0.4958,-0.5028,-0.5032,-0.5035,-0.5073,0,0,-0.5046,-0.5048,0,0,0,0,0,0,0,0,-0.4814,-0.4822,-0.4889,-0.4892,-0.4894,-0.4942,-0.493,-0.4989,-0.496,-0.4935,-0.4958,-0.4957,-0.5001,-0.5007,-0.5022,-0.5076,-0.5079,-0.5046,-0.5049,-0.505,-0.5051,0,0,0,0,0,0,0,-0.481,-0.4819,-0.4903,-0.489,-0.4893,-0.4897,-0.4904,-0.4941,-0.4972,-0.4937,-0.4938,-0.4946,-0.5003,-0.5018,-0.5024,-0.508,-0.5046,-0.5049,-0.5052,-0.5053,-0.5168,-0.5169,0,0,0,0,0,0,-0.4803,-0.4815,-0.4901,-0.4905,-0.4851,-0.49,-0.4908,-0.4928,-0.4972,-0.4977,-0.4947,-0.4947,-0.5012,-0.5019,-0.5026,-0.5073,-0.505,-0.5053,-0.5055,-0.5168,-0.5169,-0.517,0,0,0,0,0,0,-0.48,-0.481,-0.4898,-0.486,-0.4872,-0.4903,-0.4925,-0.493,-0.4945,-0.4979,-0.4984,-0.4957,-0.5012,-0.5021,-0.5061,-0.5076,-0.5055,-0.5058,-0.5166,-0.5168,-0.5169,-0.5167,0,0,0,0,0,0,-0.4797,-0.4809,-0.4824,-0.4861,-0.4874,-0.4931,-0.4926,-0.4931,-0.4951,-0.4951,-0.499,-0.4995,-0.5012,-0.5055,-0.5064,-0.508,-0.5061,-0.5165,-0.5167,-0.5169,-0.5166,-0.5168,-0.517,0,0,0,0,0,-0.4793,-0.4821,-0.4824,-0.4835,-0.4892,-0.4932,-0.494,-0.4958,-0.4952,-0.4967,-0.4988,-0.4994,-0.5072,-0.5059,-0.507,-0.5087,-0.5164,-0.5167,-0.5169,-0.5165,-0.5168,-0.517,0,0,0,0,0,0,-0.4786,-0.4826,-0.483,-0.4871,-0.4898,-0.4934,-0.4954,-0.496,-0.499,-0.4989,-0.5011,-0.5019,-0.5058,-0.5076,-0.5061,-0.5125,-0.5118,-0.5122,-0.5112,-0.5115,-0.5117,-0.5112,-0.5064,0,0,0,0,0,-0.4789,-0.4817,-0.4851,-0.4884,-0.4897,-0.4923,-0.4941,-0.4952,-0.4981,-0.4993,-0.5017,-0.5046,-0.5077,-0.5097,-0.5127,-0.5168,-0.5177,-0.5185,-0.5187,-0.5189,-0.5192,-0.5215,-0.5219,-0.5176,-0.5176,-0.5176,0,0,-0.4796,-0.4822,-0.4839,-0.4883,-0.4906,-0.4935,-0.4933,-0.4964,-0.4986,-0.4998,-0.5037,-0.5056,-0.5089,-0.5129,-0.5148,-0.5146,-0.5206,-0.5191,-0.5192,-0.5195,-0.5218,-0.5222,-0.5225,-0.5178,-0.5177,-0.5177,0,0,-0.4824,-0.4846,-0.4876,-0.4898,-0.4931,-0.4948,-0.4954,-0.499,-0.5002,-0.5041,-0.5051,-0.5077,-0.513,-0.5153,-0.5172,-0.5207,-0.5214,-0.5216,-0.5228,-0.525,-0.5253,-0.5256,-0.5269,-0.5273,-0.522,-0.522,-0.522,0,-0.4829,-0.4873,-0.4891,-0.4921,-0.4941,-0.4952,-0.4982,-0.5003,-0.5044,-0.5057,-0.5054,-0.5119,-0.5143,-0.5188,-0.5197,-0.5211,-0.522,-0.5213,-0.5251,-0.5254,-0.5257,-0.527,-0.5275,-0.522,-0.522,-0.522,-0.522,0,-0.4878,-0.4908,-0.4928,-0.4967,-0.4988,-0.5019,-0.5041,-0.5061,-0.507,-0.5087,-0.5127,-0.5154,-0.519,-0.5202,-0.5212,-0.5249,-0.5246,-0.5246,-0.524,-0.5261,-0.5273,-0.5278,-0.522,-0.522,-0.522,-0.522,0,0,-0.4905,-0.4952,-0.4959,-0.4976,-0.5013,-0.5037,-0.5067,-0.5102,-0.5118,-0.5146,-0.5173,-0.5216,-0.5216,-0.5237,-0.525,-0.5269,-0.5295,-0.5267,-0.5268,-0.5271,-0.5338,-0.5338,-0.5343,-0.5299,-0.53,-0.5301,-0.5335,0,-0.4938,-0.4992,-0.5008,-0.5054,-0.5082,-0.5092,-0.5119,-0.5145,-0.5161,-0.5188,-0.5206,-0.5237,-0.5235,-0.5247,-0.5267,-0.5288,-0.5309,-0.5285,-0.5324,-0.5326,-0.5316,-0.5349,-0.535,-0.5381,-0.534,-0.5341,-0.5341,0,-0.4983,-0.5011,-0.5059,-0.5092,-0.5104,-0.5128,-0.516,-0.5185,-0.5214,-0.5225,-0.5247,-0.5258,-0.529,-0.5281,-0.5326,-0.531,-0.5327,-0.5339,-0.5341,-0.5346,-0.5335,-0.5356,-0.5392,-0.5396,-0.5349,-0.5348,-0.5348,0,-0.4998,-0.5048,-0.5083,-0.5098,-0.5136,-0.5153,-0.5169,-0.5197,-0.5217,-0.5245,-0.5258,-0.529,-0.5307,-0.5332,-0.535,-0.5342,-0.5394,-0.5387,-0.5404,-0.5404,-0.5416,-0.5415,-0.5455,-0.5425,-0.5425,-0.5425,-0.5425,0,-0.5034,-0.5063,-0.509,-0.5112,-0.5145,-0.5163,-0.5195,-0.5213,-0.5238,-0.5263,-0.5274,-0.5298,-0.5321,-0.5348,-0.5363,-0.5398,-0.5406,-0.5415,-0.5419,-0.5415,-0.5414,-0.5427,-0.5425,-0.5426,-0.5426,-0.5426,-0.5426,0,-0.5057,-0.5076,-0.5115,-0.5148,-0.5157,-0.518,-0.5208,-0.523,-0.5246,-0.5278,-0.5287,-0.5313,-0.5345,-0.5366,-0.5407,-0.5417,-0.5455,-0.5458,-0.5445,-0.5447,-0.5464,-0.5462,-0.5515,-0.5523,-0.5487,-0.5487,-0.5487,0,-0.5078,-0.5101,-0.5135,-0.5153,-0.517,-0.5198,-0.5217,-0.5235,-0.5255,-0.5289,-0.5307,-0.5339,-0.5367,-0.5417,-0.544,-0.5472,-0.5476,-0.5492,-0.5481,-0.5476,-0.5477,-0.5475,-0.5477,-0.5494,-0.5494,-0.5495,-0.5495,0,-0.5114,-0.5122,-0.5149,-0.518,-0.5202,-0.5227,-0.5252,-0.5266,-0.5289,-0.531,-0.5343,-0.5364,-0.5405,-0.5438,-0.5471,-0.5489,-0.5496,-0.5498,-0.5504,-0.55,-0.5492,-0.5497,-0.5451,-0.5497,-0.5497,-0.5497,-0.5497,-0.5496,-0.5137,-0.5158,-0.5185,-0.5215,-0.5235,-0.5258,-0.528,-0.5298,-0.5326,-0.536,-0.5369,-0.5403,-0.5431,-0.5476,-0.5495,-0.5522,-0.552,-0.5528,-0.5531,-0.5533,-0.5533,-0.5487,-0.5528,-0.5528,-0.5528,-0.5528,-0.5528,0,-0.5174,-0.5192,-0.5219,-0.5253,-0.5276,-0.528,-0.5307,-0.5327,-0.5356,-0.5381,-0.5407,-0.5444,-0.5476,-0.55,-0.5532,-0.5549,-0.5553,-0.5557,-0.5556,-0.556,-0.5533,-0.5524,-0.5553,-0.5553,-0.5553,-0.5553,-0.5553,-0.5553,-0.5196,-0.5231,-0.5242,-0.5287,-0.5305,-0.5337,-0.5353,-0.5374,-0.5394,-0.5434,-0.546,-0.5475,-0.5501,-0.5534,-0.5563,-0.5569,-0.5581,-0.5584,-0.5591,-0.5565,-0.5562,-0.556,-0.5552,-0.5586,-0.5586,-0.5617,-0.5617,-0.5617]},{"header":{"parameterUnit":"m.s-1","parameterCategory":1,"la1":30.2991,"la2":30.254,"lo1":-89.0895,"lo2":-89.0444,"dy":0.0017,"dx":0.0017,"nx":28,"ny":28,"refTime":"2024-09-25T21:00:00:Z","depth":0,"parameterNumber":3,"parameterNumberName":"V-component_of_WINDS"},"data":[0,0,0,0,0,0,0,0,0,0,0,0,0,0,0,0,0,0,0,0,0,0,0,0,0,0,0,0,0,0,0,0,0,0,0,0,0,0,0,0,0,0,0,0,0,0,0,0,0,0,0,0,0,0,0,0,0,0,-8.6077,-8.6078,0,-8.6148,-8.6148,-8.6149,-8.6068,-8.6065,-8.6062,-8.6059,-8.6125,-8.613,-8.6134,0,0,0,0,0,0,0,0,0,0,0,0,0,-8.5867,-8.5871,-8.6077,-8.6078,-8.6079,-8.6147,-8.6148,-8.6149,-8.6069,-8.6065,-8.6061,-8.6058,-8.6124,-8.6129,-8.6135,0,0,0,0,0,0,0,0,0,0,0,0,0,-8.595,-8.5873,-8.6077,-8.6047,-8.6045,-8.6147,-8.6148,-8.615,-8.607,-8.6065,-8.6061,-8.6056,-8.6122,-8.6129,-8.6136,-8.6269,0,0,-8.6157,-8.616,0,0,0,0,0,0,0,0,-8.5945,-8.5958,-8.605,-8.6049,-8.6047,-8.6095,-8.6099,-8.6189,-8.6071,-8.606,-8.6059,-8.6054,-8.6118,-8.6125,-8.6148,-8.6272,-8.6275,-8.6157,-8.6161,-8.6164,-8.6166,0,0,0,0,0,0,0,-8.594,-8.5954,-8.6104,-8.6052,-8.605,-8.6028,-8.6035,-8.6115,-8.6114,-8.6061,-8.6055,-8.6065,-8.6117,-8.6142,-8.6149,-8.6276,-8.6157,-8.6163,-8.6167,-8.617,-8.6514,-8.6519,0,0,0,0,0,0,-8.5938,-8.595,-8.6102,-8.6107,-8.5984,-8.6036,-8.6043,-8.6084,-8.6113,-8.6113,-8.6069,-8.6061,-8.6132,-8.6141,-8.6151,-8.6311,-8.6164,-8.6171,-8.6175,-8.6509,-8.6515,-8.652,0,0,0,0,0,0,-8.5934,-8.5952,-8.6099,-8.6027,-8.6044,-8.6044,-8.609,-8.6088,-8.6113,-8.6119,-8.6117,-8.6095,-8.6129,-8.6142,-8.6241,-8.6312,-8.6174,-8.618,-8.6503,-8.6511,-8.6518,-8.6629,0,0,0,0,0,0,-8.5928,-8.5951,-8.6003,-8.6029,-8.6048,-8.619,-8.6095,-8.6092,-8.6126,-8.6116,-8.6143,-8.6143,-8.6127,-8.6231,-8.6248,-8.6319,-8.6185,-8.6497,-8.6506,-8.6515,-8.6619,-8.664,-8.6657,0,0,0,0,0,-8.5921,-8.6029,-8.6006,-8.6025,-8.6113,-8.6194,-8.6205,-8.6185,-8.6132,-8.6183,-8.6187,-8.6142,-8.6301,-8.6242,-8.626,-8.6334,-8.6492,-8.6504,-8.6515,-8.6611,-8.6636,-8.6657,0,0,0,0,0,0,-8.6009,-8.6032,-8.6006,-8.6127,-8.616,-8.618,-8.6244,-8.6212,-8.6258,-8.6247,-8.6219,-8.6226,-8.6332,-8.6343,-8.6276,-8.6465,-8.6388,-8.6403,-8.6455,-8.6478,-8.6497,-8.6492,-8.6191,0,0,0,0,0,-8.6043,-8.6109,-8.6124,-8.6229,-8.6247,-8.6244,-8.6278,-8.6261,-8.6292,-8.6305,-8.6316,-8.6347,-8.6403,-8.6441,-8.6494,-8.6621,-8.6626,-8.668,-8.6699,-8.6715,-8.6728,-8.6798,-8.6823,-8.6557,-8.6557,-8.6557,0,0,-8.6112,-8.6133,-8.6176,-8.6248,-8.6271,-8.6339,-8.6255,-8.6329,-8.6379,-8.6315,-8.6411,-8.642,-8.6453,-8.6567,-8.6618,-8.6579,-8.6803,-8.6729,-8.6742,-8.6747,-8.6812,-8.6837,-8.6859,-8.6565,-8.6564,-8.6562,0,0,-8.6274,-8.6297,-8.6388,-8.6414,-8.6451,-8.6448,-8.647,-8.6497,-8.6502,-8.6598,-8.6552,-8.661,-8.6708,-8.6734,-8.676,-8.6935,-8.6896,-8.6953,-8.7052,-8.712,-8.7141,-8.7159,-8.7222,-8.7246,-8.6966,-8.6967,-8.6967,0,-8.6355,-8.6457,-8.6437,-8.6517,-8.655,-8.6498,-8.659,-8.6615,-8.6667,-8.669,-8.6647,-8.6771,-8.6789,-8.691,-8.6953,-8.6975,-8.6999,-8.6949,-8.714,-8.7158,-8.7175,-8.7235,-8.7259,-8.6973,-8.6973,-8.6972,-8.6971,0,-8.6556,-8.6628,-8.6696,-8.6752,-8.6792,-8.6877,-8.6869,-8.6912,-8.6892,-8.6894,-8.6993,-8.7013,-8.707,-8.7097,-8.7077,-8.7216,-8.7191,-8.7144,-8.7065,-8.7207,-8.7263,-8.7286,-8.6983,-8.6981,-8.6979,-8.6977,0,0,-8.6773,-8.6819,-8.6845,-8.687,-8.6909,-8.6963,-8.7046,-8.7105,-8.7143,-8.7181,-8.7249,-8.7335,-8.7293,-8.7323,-8.7305,-8.7365,-8.7504,-8.731,-8.7311,-8.7346,-8.766,-8.7695,-8.7722,-8.7479,-8.7483,-8.7486,-8.7657,0,-8.6937,-8.7083,-8.7069,-8.7207,-8.7274,-8.7227,-8.7299,-8.733,-8.7335,-8.739,-8.7393,-8.7456,-8.7395,-8.7413,-8.747,-8.7475,-8.7567,-8.7462,-8.7541,-8.7544,-8.7536,-8.7752,-8.7789,-8.7949,-8.7679,-8.7683,-8.7685,0,-8.7147,-8.7196,-8.7342,-8.7374,-8.7401,-8.7467,-8.752,-8.7575,-8.7609,-8.7608,-8.7643,-8.7616,-8.7698,-8.7618,-8.7731,-8.7661,-8.7692,-8.77,-8.7706,-8.7712,-8.7624,-8.7765,-8.8,-8.8024,-8.772,-8.7717,-8.7714,0,-8.7292,-8.7395,-8.7496,-8.7519,-8.7558,-8.7606,-8.7624,-8.7654,-8.7691,-8.7737,-8.7761,-8.7815,-8.7845,-8.7887,-8.7875,-8.7818,-8.7991,-8.791,-8.7992,-8.7993,-8.803,-8.8028,-8.8274,-8.805,-8.805,-8.8049,-8.8049,0,-8.7476,-8.7568,-8.7563,-8.7625,-8.7726,-8.7709,-8.7809,-8.782,-8.7849,-8.7912,-8.7873,-8.7933,-8.7913,-8.7971,-8.7962,-8.8057,-8.8071,-8.8072,-8.8068,-8.8076,-8.8076,-8.8096,-8.8084,-8.8056,-8.8054,-8.8053,-8.8052,0,-8.7656,-8.7656,-8.7764,-8.7793,-8.7803,-8.7876,-8.7901,-8.7959,-8.7961,-8.8042,-8.8059,-8.8062,-8.8129,-8.8122,-8.8195,-8.8189,-8.8308,-8.8291,-8.8298,-8.8294,-8.8377,-8.837,-8.8645,-8.8681,-8.8433,-8.8435,-8.8437,0,-8.7773,-8.7843,-8.7882,-8.7923,-8.7946,-8.8012,-8.805,-8.8036,-8.8078,-8.8124,-8.8177,-8.8241,-8.8292,-8.84,-8.8408,-8.8465,-8.8449,-8.8541,-8.8456,-8.8463,-8.8451,-8.8447,-8.8455,-8.8558,-8.8561,-8.8563,-8.8565,0,-8.7983,-8.7981,-8.8039,-8.81,-8.8148,-8.8193,-8.8234,-8.827,-8.8259,-8.8308,-8.8378,-8.8418,-8.8495,-8.8559,-8.8613,-8.8629,-8.8596,-8.8592,-8.8614,-8.8622,-8.8624,-8.8625,-8.8344,-8.8585,-8.8583,-8.8582,-8.8581,-8.858,-8.8136,-8.8197,-8.8235,-8.8302,-8.8333,-8.8373,-8.843,-8.8441,-8.85,-8.8564,-8.8552,-8.863,-8.8664,-8.8734,-8.8757,-8.8817,-8.8783,-8.8815,-8.8823,-8.8831,-8.8841,-8.8615,-8.8826,-8.8826,-8.8825,-8.8825,-8.8824,0,-8.8344,-8.8367,-8.843,-8.8491,-8.8544,-8.8511,-8.8556,-8.8602,-8.8673,-8.8708,-8.876,-8.8841,-8.8904,-8.8918,-8.8978,-8.9023,-8.901,-8.904,-8.9036,-8.9041,-8.8868,-8.8843,-8.905,-8.905,-8.905,-8.905,-8.905,-8.905,-8.8459,-8.8562,-8.8564,-8.8681,-8.8703,-8.8782,-8.8811,-8.8848,-8.8877,-8.897,-8.9023,-8.9033,-8.906,-8.9122,-8.9178,-8.918,-8.9204,-8.9241,-8.9237,-8.9075,-8.9053,-8.9031,-8.9008,-8.9246,-8.9246,-8.9405,-8.9407,-8.9408]}]]